TimeCST,TemperatureF,Dew PointF,Humidity,Sea Level PressureIn,VisibilityMPH,Wind Direction,Wind SpeedMPH,Gust SpeedMPH,PrecipitationIn,Events,Conditions,WindDirDegrees,DateUTC
12:18 AM,15.8,10.4,79,29.90,10.0,North,25.3,35.7,N/A,,Mostly Cloudy,350,2012-01-17 06:18:00
12:52 AM,14.0,9.0,80,29.97,10.0,North,25.3,36.8,N/A,,Overcast,350,2012-01-17 06:52:00
1:02 AM,14.0,8.6,79,29.91,10.0,NNW,25.3,34.5,N/A,,Mostly Cloudy,340,2012-01-17 07:02:00
1:12 AM,14.0,8.6,79,29.91,10.0,North,24.2,35.7,N/A,,Mostly Cloudy,350,2012-01-17 07:12:00
1:25 AM,14.0,8.6,79,29.92,10.0,NNW,23.0,33.4,N/A,,Mostly Cloudy,340,2012-01-17 07:25:00
1:47 AM,14.0,8.6,79,29.94,10.0,NNW,28.8,35.7,N/A,,Overcast,340,2012-01-17 07:47:00
1:52 AM,12.9,7.0,77,30.01,10.0,NNW,27.6,36.8,N/A,,Overcast,340,2012-01-17 07:52:00
2:52 AM,10.9,7.0,84,30.04,1.8,North,21.9,29.9,0.00,Snow,Light Snow,350,2012-01-17 08:52:00
3:04 AM,10.4,6.8,85,29.98,0.8,NNW,21.9,29.9,0.00,Snow,Light Snow,340,2012-01-17 09:04:00
3:12 AM,10.4,6.8,85,29.99,0.8,NNW,21.9,-,0.00,Snow,Light Snow,340,2012-01-17 09:12:00
3:19 AM,10.4,6.8,85,29.98,1.0,North,21.9,29.9,0.00,Snow,Light Snow,350,2012-01-17 09:19:00
3:33 AM,10.4,6.8,85,29.98,1.2,NNW,23.0,28.8,0.00,Snow,Light Snow,340,2012-01-17 09:33:00
3:40 AM,10.4,6.8,85,29.99,1.2,North,24.2,31.1,0.00,Snow,Light Snow,350,2012-01-17 09:40:00
3:52 AM,10.0,5.0,80,30.06,1.2,North,21.9,35.7,0.00,Snow,Light Snow,350,2012-01-17 09:52:00
4:50 AM,10.4,5.0,79,30.01,1.2,North,23.0,29.9,0.00,Snow,Light Snow,350,2012-01-17 10:50:00
4:52 AM,10.0,5.0,80,30.08,1.2,NNW,23.0,29.9,0.00,Snow,Light Snow,340,2012-01-17 10:52:00
5:28 AM,8.6,3.2,79,30.03,1.8,NNW,24.2,33.4,0.00,Snow,Light Snow,340,2012-01-17 11:28:00
5:48 AM,8.6,3.2,79,30.04,2.5,NNW,20.7,-,0.00,Snow,Light Snow,340,2012-01-17 11:48:00
5:52 AM,8.1,3.9,83,30.12,2.5,NNW,20.7,-,0.00,Snow,Light Snow,340,2012-01-17 11:52:00
6:17 AM,8.6,3.2,79,30.06,3.0,NNW,19.6,26.5,0.00,Snow,Light Snow,330,2012-01-17 12:17:00
6:26 AM,8.6,3.2,79,30.06,2.5,NNW,19.6,-,0.00,Snow,Light Snow,340,2012-01-17 12:26:00
6:48 AM,6.8,3.2,85,30.07,3.0,NNW,24.2,31.1,0.00,Snow,Light Snow,330,2012-01-17 12:48:00
7:00 AM,6.8,1.4,79,30.08,5.0,NNW,20.7,29.9,N/A,,Haze,330,2012-01-17 13:00:00
7:11 AM,6.8,1.4,79,30.09,5.0,NNW,19.6,27.6,N/A,,Haze,330,2012-01-17 13:11:00
7:27 AM,6.8,1.4,79,30.10,2.0,NNW,16.1,-,0.00,Snow,Light Snow,330,2012-01-17 13:27:00
7:52 AM,6.1,1.0,80,30.19,2.5,NNW,24.2,31.1,0.00,Snow,Light Snow,330,2012-01-17 13:52:00
8:08 AM,6.8,1.4,79,30.11,1.2,NNW,21.9,29.9,0.00,Snow,Light Snow,330,2012-01-17 14:08:00
8:17 AM,6.8,1.4,79,30.12,1.5,NNW,19.6,-,0.00,Snow,Light Snow,330,2012-01-17 14:17:00
8:42 AM,6.8,1.4,79,30.14,2.5,NNW,23.0,28.8,0.00,Snow,Light Snow,330,2012-01-17 14:42:00
8:52 AM,7.0,-0.0,73,30.23,5.0,NNW,20.7,32.2,0.00,,Haze,330,2012-01-17 14:52:00
9:52 AM,8.1,-2.0,64,30.27,10.0,NNW,20.7,28.8,N/A,,Mostly Cloudy,330,2012-01-17 15:52:00
10:52 AM,9.0,-0.9,64,30.30,10.0,NNW,18.4,-,N/A,,Clear,330,2012-01-17 16:52:00
11:52 AM,10.9,-0.0,61,30.31,10.0,NW,21.9,29.9,N/A,,Clear,320,2012-01-17 17:52:00
12:52 PM,10.9,-0.0,61,30.30,10.0,NNW,21.9,28.8,N/A,,Clear,330,2012-01-17 18:52:00
1:52 PM,10.9,1.0,64,30.30,10.0,NW,20.7,-,N/A,,Clear,310,2012-01-17 19:52:00
2:52 PM,10.9,1.0,64,30.32,10.0,NW,17.3,-,N/A,,Clear,320,2012-01-17 20:52:00
4:52 PM,9.0,-0.0,67,30.35,10.0,WNW,12.7,-,N/A,,Clear,300,2012-01-17 22:52:00
5:52 PM,3.9,-2.0,76,30.37,10.0,West,6.9,-,N/A,,Clear,280,2012-01-17 23:52:00
6:52 PM,3.0,-2.9,76,30.37,10.0,West,3.5,-,N/A,,Clear,260,2012-01-18 00:52:00
7:52 PM,1.0,-4.0,79,30.37,10.0,West,4.6,-,N/A,,Clear,280,2012-01-18 01:52:00
8:52 PM,-2.9,-6.0,87,30.36,10.0,Calm,Calm,-,N/A,,Clear,0,2012-01-18 02:52:00
9:52 PM,-0.9,-4.0,87,30.35,10.0,SW,5.8,-,N/A,,Clear,230,2012-01-18 03:52:00
10:52 PM,-2.0,-6.0,83,30.33,10.0,SW,5.8,-,N/A,,Clear,220,2012-01-18 04:52:00
11:52 PM,-0.0,-4.0,83,30.31,10.0,SSW,6.9,-,N/A,,Clear,210,2012-01-18 05:52:00